Location: Biltmore Gardens
(41.6070°N, 83.4666°W)
Time: 09:39:25
(UTC+00:00)

Cosmos 2344 - Pass Details

Date: 29 October 2020
Orbit: 1246 x 2997 km, 63.3° (Epoch: 25 November)

Event Time Altitude Azimuth Distance (km) Brightness Sun altitude
Exits shadow 08:58:03 48° 355° (N) 1,607 4.0 -34.9°
Drops below altitude 10° 09:04:14 10° 31° (NNE) 3,458 6.3 -33.8°
Sets 09:07:24 0° 36° (NE) 4,588 7.1 -33.2°
